Location: Olomouc
(49.5833°N, 17.2500°E)
Time: 10:45:36
(UTC+01:00)

ISS - Visible Passes

Search period start: 25 November 2017 00:00
Search period end: 05 December 2017 00:00
Orbit: 401 x 407 km, 51.6° (Epoch: 25 November)

Date Brightness Start Highest point End Pass type
(mag) Time Alt. Az. Time Alt. Az. Time Alt. Az.
28 Nov -1.7 18:16:18 10° SSW 18:17:44 20° S 18:17:44 20° S visible
29 Nov -2.0 17:24:36 10° S 17:26:58 19° SE 17:27:37 18° SE visible
29 Nov -0.6 18:59:47 10° WSW 19:00:16 14° WSW 19:00:16 14° WSW visible
30 Nov -1.4 16:33:41 10° SSE 16:34:48 11° SE 16:35:56 10° ESE visible
30 Nov -3.0 18:07:29 10° SW 18:10:04 44° SSW 18:10:04 44° SSW visible
01 Dec -2.8 17:15:21 10° SW 17:18:21 34° SSE 17:19:49 22° E visible
01 Dec -1.0 18:51:24 10° W 18:52:28 19° W 18:52:28 19° W visible
02 Dec -3.9 17:58:56 10° WSW 18:02:09 84° SSW 18:02:09 84° SSW visible
03 Dec -3.6 17:06:33 10° SW 17:09:48 60° SSE 17:11:47 21° E visible
03 Dec -1.3 18:43:03 10° W 18:44:26 22° W 18:44:26 22° W visible
04 Dec -3.9 17:50:30 10° W 17:53:47 68° NNW 17:54:02 64° NNE visible
